Showing default

O3B FM11, 40349

Orbit data source: Space-Track

O3B FM11, 40349 is a payload satellite owned by O3B (JE) that was launched on Thu, 18 Dec 2014 UTC via a SOYUZ-ST-B launch vehicle from the French Guiana (FRGUI). Payload-class satellites include a variety of spacecraft equipped with specific instruments for various scientific and technological missions. These include communications satellites like Starlink; space stations such as the ISS; scientific satellites like the Hubble; Earth observation satellites from companies like Planet Labs, Umbra, and HawkEye 360; GPS; miniature CubeSats for education and research; and military/defense satellites.

Loading next visibility...
Identifier
40349, 2014-083B
Orbit
Active
Country
Flag of UnknownUnknown / O3B
Related business
Manufacturer
Thales Alenia
Mission
Operational Commercial Communications
Bus & Motor
PRISMA?, LS-400 AOCS?
Mass
700 kg wet, ~500 kg dry
Launch date (UTC)
2014-12-18 (11 years ago)
Launch vehicle
SOYUZ-ST-B
Launch site
French Guiana (FRGUI)
Object type
Payload
Rocket body
Debris
Shape & HBR
Trap Box + 2 Pan, 6.0 m
Radar Cross Section
21.980 m², Large (>1 m²)

Expand to show TLE details & history
Last TLE update: 1 day ago

TLE from 1 day ago
0 O3B FM11
1 40349U 14083B   25260.92109390 -.00000031  00000-0  00000-0 0  9999
2 40349   0.0483   2.5627 0003326 178.3451 179.0912  5.00115583196285
Epoch: 2025-09-17T22:06Z
TLE epoch observation values (Epoch: 2025-09-17T22:06:22.512Z)
Latitude
-0.00418°
Longitude
31.31599°
Altitude
8,069.178 km
Speed
5.253 km/s
True Right ascension
23h 59m 59s
True Declination
0° 00' 15"
Sunlit
Object was in full shadow at epoch
Visualization orbit readout
Latitude
Unknown
Longitude
Unknown
Altitude
Unknown
Speed
Unknown
Apparent Right ascension
Unknown
Apparent Declination
Unknown
Sunlit
N/A
Visualization observer readout
Local Sidereal Time
17:29:07
Azimuth
Unknown
Elevation
Unknown
Doppler factor
Unknown
Orbital elements
Apogee altitude
8,073.752 km
Perigee altitude
8,064.142 km
Semi-major axis
14,447.084 km
Eccentricity
0.00033
Inclination
0.0483°
RAAN
2.5627°
Arg. of periapsis
178.3451°
True anomaly
179.0918°
Mean anomaly
179.0912°
Eccentric anomaly
179.0915°
Mean motion
1.24989 °/min
Orbital period
288.02 mins
BSTAR
0
Loading maneuver chart data...
Computing Atmospheric mass density...
Loading historical data...
Loading historical data...
Loading historical data...
Loading historical data...
Loading historical data...
Loading historical data...
Loading historical data...
Other satellites on launch #83 in the year 2014 (2014-12-18 UTC)

Documentation

Showing up to 5 results
|